Jersey, United Kingdom

4:20 AM GMT on February 23, 2017 (GMT +0000)
Jersey

Weather History for EGJJ - June, 2013

Change the Weather History Date:

Sunday, June 16, 2013

  Actual Average Record
Temperature  
Mean Temperature 59 °F -  
Max Temperature 66 °F 65 °F 77 °F (2000)
Min Temperature 52 °F 54 °F 48 °F (2008)
Degree Days  
Heating Degree Days 6    
Growing Degree Days 9 (Base 50)    
Moisture  
Dew Point 52 °F    
Average Humidity 78    
Maximum Humidity 94    
Minimum Humidity 52    
Precipitation  
Precipitation 0.00 in - - ()
Sea Level Pressure  
Sea Level Pressure 29.92 in    
Wind  
Wind Speed 9 mph ()    
Max Wind Speed 18 mph    
Max Gust Speed -    
Visibility 6.9 miles    
Events Rain    
Averages and records for this station are not official NWS values.
T = Trace of Precipitation, MM = Missing Value Source: Averaged Metar Reports

Daily Weather History Graph

Daily Weather History Graph

Search for Another Location

Airport or City:

Trip Planner

Search our weather history database for the weather conditions in past years. The results will help you decide how hot, cold, wet, or windy it might be!

Date:

Astronomy

Jun. 16, 2013 Rise Set
Actual Time 5:02 AM BST 9:16 PM BST
Civil Twilight 4:19 AM BST 9:59 PM BST
Nautical Twilight 3:17 AM BST 11:01 PM BST
Astronomical Twilight 1:41 AM BST 12:37 AM BST
Moon 1:01 PM BST (6/16) 12:39 AM BST (6/16)
Length of Visible Light 17h 39m
Length of Day
16h 13m
Waxing Crescent, 47% of the Moon is Illuminated
Jun 16
Waxing Crescent
Jun 16
First Quarter
Jun 23
Full
Jun 30
Last Quarter
Jul 8
New

Hourly Weather History & Observations

Time (BST) Temp. Dew Point Humidity Pressure Visibility Wind Dir Wind Speed Gust Speed Precip Events Conditions
1:00 AM 53 °F 51 °F 88% 30.01 in 6 mi WSW 8.1 mph - -   Scattered Clouds
3:50 AM 53.6 °F 50.0 °F 88% 29.98 in 6.2 mi SSW 9.2 mph - N/A   Partly Cloudy
4:00 AM 54 °F 49 °F 79% 29.97 in 12 mi SSW 9.2 mph - - Rain Light Rain
4:20 AM 53.6 °F 50.0 °F 88% 29.95 in 6.2 mi SSW 6.9 mph - N/A   Partly Cloudy
4:50 AM 53.6 °F 50.0 °F 88% 29.95 in 6.2 mi SSW 9.2 mph - N/A   Partly Cloudy
5:20 AM 53.6 °F 50.0 °F 88% 29.95 in 6.2 mi SSW 8.1 mph - N/A   Partly Cloudy
5:50 AM 53.6 °F 51.8 °F 94% 29.95 in 6.2 mi SSW 9.2 mph - N/A Rain Light Rain
6:20 AM 53.6 °F 51.8 °F 94% 29.95 in 6.2 mi SSW 8.1 mph - N/A Rain Light Rain
6:50 AM 53.6 °F 51.8 °F 94% 29.95 in 6.2 mi SSW 5.8 mph - N/A Rain Light Rain
7:00 AM 54 °F 52 °F 89% 29.96 in 9 mi SSW 9.2 mph - - Rain Light Rain
7:20 AM 53.6 °F 51.8 °F 94% 29.95 in 6.2 mi South 6.9 mph - N/A Rain Light Rain
7:50 AM 53.6 °F 51.8 °F 94% 29.95 in 6.2 mi South 8.1 mph - N/A Rain Light Rain
8:20 AM 53.6 °F 51.8 °F 94% 29.95 in 6.2 mi South 8.1 mph - N/A Rain Light Rain
8:50 AM 55.4 °F 51.8 °F 88% 29.95 in 6.2 mi South 6.9 mph - N/A Rain Light Rain
9:20 AM 53.6 °F 51.8 °F 94% 29.95 in 6.2 mi South 5.8 mph - N/A Rain Light Rain
9:50 AM 55.4 °F 50.0 °F 82% 29.95 in 6.2 mi SSE 5.8 mph - N/A Rain Light Rain
10:00 AM 54 °F 50 °F 83% 29.95 in 12 mi South 6.9 mph - - Rain Light Rain
10:20 AM 55.4 °F 53.6 °F 94% 29.92 in 6.2 mi SE 6.9 mph - N/A Rain Rain
10:50 AM 57.2 °F 53.6 °F 88% 29.95 in 6.2 mi SSE 10.4 mph - N/A   Partly Cloudy
11:20 AM 57.2 °F 53.6 °F 88% 29.95 in 6.2 mi South 10.4 mph - N/A   Partly Cloudy
11:50 AM 59.0 °F 53.6 °F 82% 29.95 in 6.2 mi SSE 18.4 mph - N/A Rain Light Rain
12:20 PM 57.2 °F 53.6 °F 88% 29.92 in 6.2 mi SE 17.3 mph - N/A   Partly Cloudy
12:50 PM 59.0 °F 53.6 °F 82% 29.92 in 6.2 mi ESE 16.1 mph - N/A   Partly Cloudy
1:00 PM 58 °F 53 °F 76% 29.93 in 16 mi SE 16.1 mph - - Rain Light Rain
1:20 PM 59.0 °F 50.0 °F 72% 29.92 in 6.2 mi ESE 12.7 mph - N/A   Partly Cloudy
1:50 PM 60.8 °F 51.8 °F 72% 29.92 in 6.2 mi ESE 12.7 mph - N/A   Partly Cloudy
2:20 PM 60.8 °F 51.8 °F 72% 29.92 in 6.2 mi SE 16.1 mph - N/A   Partly Cloudy
2:50 PM 62.6 °F 51.8 °F 68% 29.89 in 6.2 mi ESE 12.7 mph - N/A   Partly Cloudy
3:20 PM 64.4 °F 51.8 °F 64% 29.89 in 6.2 mi ESE 15.0 mph - N/A   Partly Cloudy
3:50 PM 64.4 °F 51.8 °F 64% 29.86 in 6.2 mi SE 12.7 mph - N/A   Partly Cloudy
4:00 PM 64 °F 51 °F 52% 29.88 in 22 mi ESE 16.1 mph - -   Scattered Clouds
4:20 PM 64.4 °F 51.8 °F 64% 29.89 in 6.2 mi ESE 15.0 mph - N/A   Partly Cloudy
4:50 PM 66.2 °F 51.8 °F 60% 29.89 in 6.2 mi SE 13.8 mph - N/A   Partly Cloudy
5:20 PM 66.2 °F 51.8 °F 60% 29.89 in 6.2 mi ESE 11.5 mph - N/A   Partly Cloudy
5:50 PM 64.4 °F 51.8 °F 64% 29.86 in - SE 13.8 mph - N/A   Clear
6:20 PM 62.6 °F 51.8 °F 68% 29.86 in 6.2 mi SSE 11.5 mph - N/A   Partly Cloudy
6:50 PM 64.4 °F 51.8 °F 64% 29.86 in - SSE 10.4 mph - N/A   Clear
7:00 PM 64 °F 52 °F 55% 29.88 in 25 mi SE 13.8 mph - -   Mostly Cloudy
7:20 PM 64.4 °F 51.8 °F 64% 29.86 in - ESE 10.4 mph - N/A   Clear
7:50 PM 62.6 °F 51.8 °F 68% 29.86 in - ESE 10.4 mph - N/A   Clear
8:20 PM 62.6 °F 51.8 °F 68% 29.86 in - East 8.1 mph - N/A   Clear
8:50 PM 62.6 °F 51.8 °F 68% 29.86 in - ESE 9.2 mph - N/A   Clear
9:20 PM 59.0 °F 53.6 °F 82% 29.86 in - East 10.4 mph - N/A   Clear
9:50 PM 57.2 °F 53.6 °F 88% 29.89 in - East 11.5 mph - N/A   Clear
10:00 PM 58 °F 53 °F 78% 29.88 in 22 mi East 9.2 mph - -   Mostly Cloudy